Regional Weather Roundup
Issued by NWS

Home | Current Version | Previous Version | Graphics & Text | Print | Product List | Glossary On
Versions: 1 2 3 4 5 6 7 8 9 10 11 12 13 14 15 16 17 18 19 20 21 22 23 24 25 26 27 28 29 30 31 32 33 34 35 36 37 38 39 40 41 42 43 44 45 46 47 48 49 50
000
ASUS45 KSLC 281710
RWRUT

UTAH REGIONAL WEATHER ROUNDUP
NATIONAL WEATHER SERVICE SALT LAKE CITY UT
1000 AM MST WED JAN 28 2015

UTZ001>011-023>025-281800-

NORTHERN UTAH

CITY           SKY/WX    TMP DP  RH WIND       PRES   REMARKS
BRIGHAM CITY   CLOUDY    43  38  82 SE3       30.30R
HILL AFB       CLOUDY    42  38  87 VRB3      30.29R
LOGAN          CLOUDY    41  36  82 NE3       30.28R
OGDEN          CLOUDY    42  39  89 S7        30.29R
PROVO AIRPORT  CLOUDY    43  36  75 CALM      30.30R
SALT LAKE CITY PTSUNNY   43  39  86 N6        30.29R
VERNAL         SUNNY     39  29  67 CALM      30.27S
WENDOVER       CLOUDY    39  30  70 NE5       30.30R
HEBER CITY     CLOUDY    37  32  81 CALM      30.29R
WEST JORDAN    CLOUDY    43  39  87 CALM      30.29R

$$

UTZ012>022-026-027-281800-

SOUTHERN/CENTRAL UTAH

CITY           SKY/WX    TMP DP  RH WIND       PRES   REMARKS
BLANDING       MOSUNNY   43  35  73 CALM      30.37S
BRYCE CANYON   MOSUNNY   32  31  96 W3        30.32R
CEDAR CITY     MOSUNNY   39  31  72 CALM      30.30R
DELTA          MOSUNNY   42  36  77 S6        30.30R
MILFORD        SUNNY     40  35  83 S9        30.29R WCI  34
MOAB/CYNLANDS  SUNNY     40  33  76 W3        30.29R
PRICE          PTSUNNY   41  31  67 CALM      30.29R
ST GEORGE      CLOUDY    43  39  87 CALM      30.33S

$$

REGIONAL REPORTS     COLORADO/ARIZONA

CITY           SKY/WX    TMP DP  RH WIND       PRES   REMARKS
CRAIG, CO      CLOUDY    35  32  88 N5        30.26R WCI  31
GRAND JUNCTION SUNNY     38  29  70 S3        30.31R
RIFLE          PTSUNNY   33  28  81 CALM      30.31R
MONTROSE       MOSUNNY   39  29  67 CALM      30.33R
CORTEZ         SUNNY     42  33  70 NE3       30.31S
PAGE, AZ       NOT AVBL
GRAND CANYON   MOSUNNY   38  34  85 CALM      30.32S
KINGMAN          N/A     46  45  96 CALM      30.27S
FLAGSTAFF      MOSUNNY   36  31  82 N3        30.32S

$$

REGIONAL REPORTS    NEVADA/IDAHO/WYOMING

CITY           SKY/WX    TMP DP  RH WIND       PRES   REMARKS
LAS VEGAS, NV  CLOUDY    54  44  69 N3        30.23S
ELY            SUNNY     39  33  79 CALM      30.32S
ELKO           MOSUNNY   41  37  86 CALM      30.33R
POCATELLO, ID  CLOUDY    38  38 100 SW16      30.30R WCI  29
BURLEY         CLOUDY    38  36  92 W7        30.30R FOG     WCI  33
EVANSTON, WY   CLOUDY    36  32  85 SW10      30.27R WCI  28
ROCK SPRINGS   MOSUNNY   36  30  79 W21       30.22R WCI  25
KEMMERER       CLOUDY    34  32  93 W14       30.24R WCI  24

$$


USA.gov is the U.S. government's official web portal to all federal, state and local government web resources and services.